Location: Wellington
(41.3000°S, 174.7830°E)
Time: 13:35:40
(UTC+13:00)

Meteor 2-21 - Pass Details

Date: 24 January 2019
Orbit: 934 x 966 km, 82.5° (Epoch: 13 October)

Event Time Altitude Azimuth Distance (km) Brightness Sun altitude
Exits shadow 23:43:01 54° 50° (NE) 1,138 4.5 -24.3°
Maximum altitude 23:43:56 60° 87° (E) 1,074 4.5 -24.4°
Drops below altitude 10° 23:49:56 10° 165° (SSE) 2,680 7.4 -24.9°
Sets 23:52:28 0° 168° (SSE) 3,633 8.3 -25.2°
